EW9748 Weather Reports


time (UTC)temp
C
wind
direction
speed
KPH
gust
KPH
rain 1hr
cm
rain 24hr
cm
rain mn
cm
humidity
%
barometer
mb
20260906220026 26 5 0.0 0.0 0.15 0.15 0.15 77 1005.1
20260906214516 26 15 0.0 0.0 0.15 0.15 0.15 78 1005.4
20260906213008 29 15 0.0 0.0 0.15 0.15 0.15 61 1005.7
20260906211503 34 10 0.0 0.0 0.00 0.00 0.00 36 1005.6
20260906210002 35 5 0.0 0.0 0.00 0.00 0.00 35 1005.9
20260906204602 35 5 0.0 0.0 0.00 0.00 0.00 35 1006.1
20260906203101 35 5 0.0 0.0 0.00 0.00 0.00 36 1006.2
20260906201635 35 5 0.0 0.0 0.00 0.00 0.00 37 1006.3
20260906200056 35 5 0.0 0.0 0.00 0.00 0.00 37 1006.5
20260906194603 36 5 0.0 0.0 0.00 0.00 0.00 35 1006.6
20260906193052 35 5 0.0 0.0 0.00 0.00 0.00 38 1006.9
20260906191606 35 5 0.0 0.0 0.00 0.00 0.00 37 1007.0
20260906190051 36 5 0.0 1.6 0.00 0.00 0.00 35 1007.1
20260906184553 35 5 0.0 9.7 0.00 0.00 0.00 36 1007.5
20260906183046 35 5 0.0 1.6 0.00 0.00 0.00 38 1007.7
20260906181559 34 5 0.0 12.9 0.00 0.00 0.00 40 1008.0
20260906180046 33 5 0.0 3.2 0.00 0.00 0.00 41 1008.2
20260906174545 33 5 0.0 9.7 0.00 0.00 0.00 41 1008.4
20260906173044 35 5 0.0 0.0 0.00 0.00 0.00 38 1008.6
20260906171541 34 5 0.0 0.0 0.00 0.00 0.00 38 1008.8
20260906170040 33 5 0.0 0.0 0.00 0.00 0.00 40 1008.9
20260906164539 34 5 0.0 0.0 0.00 0.00 0.00 39 1009.1
20260906163046 33 5 0.0 0.0 0.00 0.00 0.00 41 1009.0
20260906161534 33 5 0.0 0.0 0.00 0.00 0.00 42 1009.1
20260906160031 32 5 0.0 0.0 0.00 0.00 0.00 43 1009.1
20260906154527 32 5 0.0 0.0 0.00 0.00 0.00 46 1009.0
20260906153027 31 5 0.0 0.0 0.00 0.00 0.00 49 1008.9
20260906151521 30 5 0.0 0.0 0.00 0.00 0.00 53 1008.9
20260906150018 30 5 0.0 0.0 0.00 0.00 0.00 55 1008.7
20260906144513 28 5 0.0 0.0 0.00 0.00 0.00 59 1008.7
20260906143010 28 5 0.0 0.0 0.00 0.00 0.00 61 1008.8
20260906141508 27 5 0.0 0.0 0.00 0.00 0.00 63 1008.9
20260906140012 26 5 0.0 0.0 0.00 0.00 0.00 67 1008.8
20260906134505 25 5 0.0 0.0 0.00 0.00 0.00 70 1008.8
20260906133004 23 5 0.0 0.0 0.00 0.00 0.00 71 1008.8
20260906131505 22 5 0.0 0.0 0.00 0.00 0.00 71 1008.7
20260906130005 22 5 0.0 0.0 0.00 0.00 0.00 71 1008.6
20260906124601 22 5 0.0 0.0 0.00 0.00 0.00 71 1008.4
20260906123059 22 5 0.0 0.0 0.00 0.00 0.00 72 1008.1
20260906121607 22 5 0.0 0.0 0.00 0.00 0.00 70 1007.9
20260906120054 22 5 0.0 0.0 0.00 0.00 0.00 69 1007.8
20260906114602 22 5 0.0 0.0 0.00 0.00 0.00 69 1007.8
20260906113103 23 5 0.0 0.0 0.00 0.00 0.00 69 1007.5
20260906111549 23 5 0.0 0.0 0.00 0.00 0.00 67 1007.5
20260906110048 23 5 0.0 0.0 0.00 0.00 0.00 67 1007.5
20260906104548 23 5 0.0 0.0 0.00 0.00 0.00 66 1007.3
20260906103047 23 5 0.0 0.0 0.00 0.00 0.00 67 1007.1
20260906101547 23 5 0.0 0.0 0.00 0.00 0.00 67 1007.2
20260906100046 23 5 0.0 0.0 0.00 0.00 0.00 66 1007.1
20260906094549 23 5 0.0 0.0 0.00 0.00 0.00 65 1007.0
20260906093042 23 5 0.0 0.0 0.00 0.00 0.00 64 1006.9
20260906091546 23 5 0.0 0.0 0.00 0.00 0.00 62 1006.8
20260906090038 24 5 0.0 0.0 0.00 0.00 0.00 61 1006.8
20260906084536 25 5 0.0 0.0 0.00 0.00 0.00 59 1007.0
20260906083033 25 5 0.0 0.0 0.00 0.00 0.00 58 1006.8
20260906081539 25 5 0.0 0.0 0.00 0.00 0.00 58 1006.6
20260906080033 26 5 0.0 0.0 0.00 0.00 0.00 57 1006.7
20260906074527 26 5 0.0 0.0 0.00 0.00 0.00 57 1007.0
20260906073024 26 5 0.0 0.0 0.00 0.00 0.00 56 1007.1
20260906071521 26 5 0.0 0.0 0.00 0.00 0.00 55 1007.1
20260906070019 26 5 0.0 0.0 0.00 0.00 0.00 54 1007.2
20260906064524 26 5 0.0 0.0 0.00 0.00 0.00 53 1007.5
20260906063014 27 5 0.0 0.0 0.00 0.00 0.00 52 1007.4
20260906061512 27 5 0.0 0.0 0.00 0.00 0.00 51 1007.7
20260906060012 27 5 0.0 0.0 0.00 0.00 0.00 51 1007.8
20260906054509 27 5 0.0 0.0 0.00 0.00 0.00 51 1007.8
20260906053008 27 5 0.0 0.0 0.00 0.00 0.00 50 1007.8
20260906051510 27 5 0.0 0.0 0.00 0.00 0.00 49 1007.7
20260906050011 28 5 0.0 0.0 0.00 0.00 0.00 49 1007.7
20260906044504 28 5 0.0 0.0 0.00 0.00 0.00 48 1007.7
20260906043007 28 5 0.0 0.0 0.00 0.00 0.00 47 1007.7
20260906041504 28 5 0.0 0.0 0.00 0.00 0.00 47 1007.7
20260906040002 28 5 0.0 0.0 0.00 0.00 0.00 47 1007.6
20260906034502 28 5 0.0 0.0 0.00 0.00 0.00 46 1007.6
20260906033001 29 5 0.0 0.0 0.00 0.00 0.00 46 1007.3
20260906031625 29 5 0.0 1.6 0.00 0.00 0.00 45 1007.1
20260906030101 30 5 0.0 0.0 0.00 0.00 0.00 44 1006.9
20260906024604 30 5 0.0 0.0 0.00 0.00 0.00 43 1006.6
20260906023111 30 5 0.0 3.2 0.00 0.00 0.00 42 1006.5
20260906021600 30 5 0.0 0.0 0.00 0.00 0.00 41 1006.4
20260906020101 31 5 0.0 1.6 0.00 0.00 0.00 41 1006.1
20260906014557 31 5 0.0 0.0 0.00 0.00 0.00 40 1005.9
20260906013057 31 5 0.0 0.0 0.00 0.00 0.00 40 1005.7
20260906011604 32 5 0.0 0.0 0.00 0.00 0.00 39 1005.4
20260906010055 32 5 0.0 3.2 0.00 0.00 0.00 39 1005.2
20260906004559 32 5 0.0 9.7 0.00 0.00 0.00 39 1005.1
20260906003054 33 5 0.0 0.0 0.00 0.00 0.00 39 1005.0
20260906001553 33 5 0.0 0.0 0.00 0.00 0.00 38 1004.9
20260906000100 33 5 0.0 0.0 0.00 0.00 0.00 38 1004.9
20260905234554 33 5 0.0 0.0 0.00 0.00 0.00 37 1004.8
20260905233056 34 5 0.0 0.0 0.00 0.00 0.00 36 1004.6
20260905231552 35 5 0.0 0.0 0.00 0.00 0.00 35 1004.4
20260905230050 35 5 0.0 0.0 0.00 0.00 0.00 33 1004.5
20260905224549 36 5 0.0 3.2 0.00 0.00 0.00 34 1004.4
20260905223048 36 5 0.0 0.0 0.00 0.00 0.00 33 1004.5
20260905221600 36 5 0.0 0.0 0.00 0.00 0.00 33 1004.6